Погода в Мурундаве

Мадагаскар     20°17′34″S   44°16′46″E
темп.,
°C
ветер,
м/с
пор.,
м/с
влажн.,
%
обл.,
%
осадки,
мм/ч
давл.,
гПа
погр.,
м
1 марта, пн
пн100:00+27вюв3379100 0.4 1007135
03:00+27всв3379100 0.9 1006152
06:00+27всв228288 0.1 1007173
09:00+28всв337870 0.6 1009196
12:00+29ссз227092 1.3 1008225
15:00+30з336896 1.4 1007316
18:00+30юз347339 0.0 1007264
21:00+29ююз347641 0.0 1009178
2 марта, вт
вт200:00+27юв468196 3.1 1009175
03:00+27в457998 5.3 1008187
06:00+27всв3479100 0.1 1008216
09:00+28св5776100 0.1 1010497
12:00+29ссв456691 0.0 1009456
15:00+30зюз216383 0.0 1007280
18:00+29юз56740 0.0 1007363
21:00+28ю457720 0.3 1009227
3 марта, ср
ср300:00+28ю347687 0.6 1009154
03:00+28ююв457589 3.2 1007159
06:00+27в337973 0.2 1008149
09:00+28св347686 0.2 1009315
12:00+29ссз346897 0.1 1007461
15:00+29з447052 0.1 1006348
18:00+29сз237057 1.9 1006175
21:00+27ссв788278 5.6 1008449
4 марта, чт
чт400:00+25св8993100 6.6 1007527
03:00+26всв5782100 11.8 1006408
06:00+25в4584100 2.5 1006340
09:00+26вюв458498 2.5 1007302
12:00+28с347392 0.9 1005653
15:00+27с457896 1.8 1003742
18:00+27всв3380100 1.1 1003424
21:00+26св4590100 9.0 1005416
5 марта, пт
пт500:00+25в5694100 4.7 1004344
03:00+24юв5694100 23.8 1003282
06:00+25всв7989100 2.6 1003587
09:00+26в81085100 2.7 1004823
12:00+25вюв7987100 0.2 1003594
15:00+26ююв447998 0.3 1001669
18:00+26ююв5679100 0.1 1002633
21:00+27ю4574100 0.1 1004529